Погода в Северске

Россия / Томская область     56°36′11″N   84°52′51″E
темп.,
°C
ветер,
м/с
пор.,
м/с
влажн.,
%
обл.,
%
осадки,
мм/ч
давл.,
гПа
погр.,
м
28 ноября, вс
вс2801:00−6юз61494100 3.8 1022969
04:00−6юз61494100 1.8 1022893
07:00−6юз61494100 3.1 1022792
10:00−5юз5139299 0.4 1025647
13:00−4зюз61292100 0.7 1026702
16:00−4юз61292100 0.2 1027647
19:00−5зюз61293100 0.4 1030681
22:00−5зюз51192100 0.1 1031509
29 ноября, пн
пн2901:00−7зюз41093100 0.3 1033409
04:00−6юз3894100 0.1 1033497
07:00−9ююз499699 0.1 1034277
10:00−10ююз41096100 0.1 1034318
13:00−8ююз41193100 0.1 1032399
16:00−8ююз41192100 0.0 1031391
19:00−8ююз41292100 0.0 1030369
22:00−8ююз41288100 0.0 1029404
30 ноября, вт
вт3001:00−8ююз51383100 0.0 1028411
04:00−9ююз4138297 0.0 1026374
07:00−9ююз4138299 0.0 1025338
10:00−10ююз4128468 0.0 1026327
13:00−7юз4138168 0.0 1025439
16:00−7юз4128049 0.0 1025374
19:00−7юз41284100 0.0 1026371
22:00−6юз41087100 0.0 1027329
1 декабря, ср
ср101:00−7ююз41088100 0.0 1027295
04:00−8ююз4987100 0.0 1028276
07:00−13ю3890100 0.0 1028153
10:00−13ю3109299 0.0 1028195
13:00−10ю41288100 0.0 1026303
16:00−8ю41288100 0.0 1025307
19:00−8ююз5138680 0.0 1024313
22:00−8ююз5148562 0.0 1023341
2 декабря, чт
чт201:00−8ююз41386100 0.0 1022331
04:00−9ююз41288100 0.0 1022293
07:00−9ююз41289100 0.0 1021274
10:00−10ююз4119096 0.0 1021261
13:00−7ююз41387100 0.0 1020363
16:00−6ю41287100 0.0 1019317
19:00−7ю41285100 0.0 1017287
22:00−6ю51583100 0.0 1016336